KC0AFB Weather Reports


time (UTC)temp
F
wind
direction
speed
knots
gust
knots
rain 1hr
in
rain 24hr
in
rain mn
in
humidity
%
barometer
mb
20260506044741 32 1 0.9 1.7 0.00 0.00 0.00 62 1017.2
20260506044238 32 49 0.9 0.9 0.00 0.00 0.00 62 1017.1
20260506043736 31 26 0.9 0.9 0.00 0.00 0.00 62 1017.2
20260506043233 31 14 0.9 1.7 0.00 0.00 0.00 62 1017.0
20260506042732 32 357 0.9 1.7 0.00 0.00 0.00 61 1017.0
20260506042230 33 51 0.9 1.7 0.00 0.00 0.00 60 1017.0
20260506041728 33 53 0.9 1.7 0.00 0.00 0.00 60 1017.1
20260506041225 32 53 0.9 1.7 0.00 0.00 0.00 61 1017.0
20260506040722 31 65 0.9 0.9 0.00 0.00 0.00 62 1016.8
20260506040219 32 65 0.9 0.9 0.00 0.00 0.00 62 1017.0
20260506035716 32 65 0.9 0.9 0.00 0.00 0.00 61 1017.0
20260506035213 33 65 0.9 0.9 0.00 0.00 0.00 60 1016.9
20260506034709 32 59 0.9 0.9 0.00 0.00 0.00 61 1017.0
20260506034207 32 52 0.0 0.9 0.00 0.00 0.00 62 1016.9
20260506033704 33 50 0.0 0.0 0.00 0.00 0.00 61 1016.8
20260506033201 34 42 0.0 0.0 0.00 0.00 0.00 57 1016.9
20260506032658 34 36 0.0 0.9 0.00 0.00 0.00 57 1016.8
20260506032154 34 21 0.9 0.9 0.00 0.00 0.00 58 1016.9
20260506031651 34 21 0.9 0.9 0.00 0.00 0.00 58 1016.7
20260506031148 35 18 0.9 0.9 0.00 0.00 0.00 57 1017.0
20260506030647 35 34 0.9 0.9 0.00 0.00 0.00 57 1016.7
20260506030144 35 14 1.7 1.7 0.00 0.00 0.00 56 1016.8
20260506025640 35 19 2.6 2.6 0.00 0.00 0.00 56 1016.7
20260506025136 35 32 1.7 1.7 0.00 0.00 0.00 56 1016.6
20260506024634 36 12 1.7 1.7 0.00 0.00 0.00 56 1016.6
20260506024129 36 49 0.9 0.9 0.00 0.00 0.00 56 1016.3
20260506023626 36 41 0.9 1.7 0.00 0.00 0.00 55 1016.6
20260506023123 36 21 1.7 1.7 0.00 0.00 0.00 55 1016.3
20260506022621 36 8 2.6 2.6 0.00 0.00 0.00 55 1016.2
20260506022119 36 19 1.7 1.7 0.00 0.00 0.00 54 1016.4
20260506021616 36 12 1.7 1.7 0.00 0.00 0.00 55 1016.0
20260506021113 36 30 1.7 2.6 0.00 0.00 0.00 55 1016.0
20260506020610 36 30 2.6 2.6 0.00 0.00 0.00 55 1016.1
20260506020108 36 18 1.7 1.7 0.00 0.00 0.00 55 1016.2
20260506015605 36 23 1.7 1.7 0.00 0.00 0.00 56 1016.2
20260506015101 36 21 2.6 2.6 0.00 0.00 0.00 56 1016.0
20260506014559 36 28 0.9 0.9 0.00 0.00 0.00 55 1015.7
20260506014054 36 25 1.7 1.7 0.00 0.00 0.00 55 1015.8
20260506013553 37 29 0.9 0.9 0.00 0.00 0.00 54 1015.8
20260506013049 37 0 2.6 2.6 0.00 0.00 0.00 53 1015.8
20260506012545 38 342 2.6 2.6 0.00 0.00 0.00 53 1015.8
20260506012042 39 9 2.6 2.6 0.00 0.00 0.00 52 1015.8
20260506011541 39 1 4.3 6.1 0.00 0.00 0.00 51 1015.6
20260506011036 39 10 4.3 5.2 0.00 0.00 0.00 51 1015.4
20260506010531 40 352 4.3 5.2 0.00 0.00 0.00 50 1015.6
20260506010027 40 4 7.0 7.8 0.00 0.00 0.00 49 1015.5
20260506005524 40 309 6.1 7.0 0.00 0.00 0.00 50 1015.6
20260506005020 40 333 6.1 7.0 0.00 0.00 0.00 51 1015.5
20260506004518 39 355 5.2 6.1 0.00 0.00 0.00 50 1015.6
20260506004014 39 323 4.3 6.1 0.00 0.00 0.00 51 1015.5
20260506003510 39 310 3.5 4.3 0.00 0.00 0.00 51 1015.5
20260506003007 40 298 7.0 11.3 0.00 0.00 0.00 50 1015.7
20260506002503 40 336 7.0 11.3 0.00 0.00 0.00 49 1015.4
20260506001958 40 2 5.2 7.0 0.00 0.00 0.00 50 1015.3
20260506001455 41 337 6.1 7.8 0.00 0.00 0.00 49 1015.6
20260506000953 41 332 7.8 9.6 0.00 0.00 0.00 49 1015.2
20260506000450 41 332 7.0 7.8 0.00 0.00 0.00 49 1015.3
20260505235946 41 326 4.3 6.1 0.00 0.00 0.00 49 1015.3
20260505235445 41 312 7.0 8.7 0.00 0.00 0.00 49 1015.4
20260505234941 41 9 7.0 8.7 0.00 0.00 0.00 48 1015.5
20260505234439 41 336 7.0 7.8 0.00 0.00 0.00 49 1015.4
20260505233935 41 331 7.8 8.7 0.00 0.00 0.00 48 1015.3
20260505233433 41 312 5.2 7.0 0.00 0.00 0.00 49 1015.5
20260505232930 42 352 5.2 7.0 0.00 0.00 0.00 49 1015.4
20260505232429 41 348 7.0 9.6 0.00 0.00 0.00 48 1015.5
20260505231925 42 312 9.6 13.0 0.00 0.00 0.00 48 1015.3
20260505231422 42 336 4.3 6.1 0.00 0.00 0.00 49 1015.4
20260505230920 42 2 4.3 5.2 0.00 0.00 0.00 49 1015.3
20260505230418 41 309 7.8 8.7 0.00 0.00 0.00 48 1015.2
20260505225914 42 309 5.2 7.8 0.00 0.00 0.00 48 1015.2
20260505225411 41 308 6.1 7.8 0.00 0.00 0.00 48 1015.3
20260505224907 41 325 9.6 12.2 0.00 0.00 0.00 47 1015.0
20260505224404 42 316 7.0 8.7 0.00 0.00 0.00 48 1015.0
20260505223901 42 311 9.6 12.2 0.00 0.00 0.00 48 1015.1
20260505223358 42 306 3.5 5.2 0.00 0.00 0.00 49 1015.0
20260505222854 42 315 8.7 9.6 0.00 0.00 0.00 48 1015.0
20260505222350 42 339 9.6 12.2 0.00 0.00 0.00 49 1015.2
20260505221847 42 311 4.3 5.2 0.00 0.00 0.00 50 1015.1
20260505221344 42 324 7.8 8.7 0.00 0.00 0.00 50 1015.2
20260505220841 42 317 5.2 6.1 0.00 0.00 0.00 50 1015.0
20260505220338 41 328 7.0 7.8 0.00 0.00 0.00 50 1015.0
20260505215836 42 328 9.6 13.0 0.00 0.00 0.00 49 1015.3
20260505215334 42 337 7.0 8.7 0.00 0.00 0.00 50 1015.1
20260505214832 42 295 5.2 7.0 0.00 0.00 0.00 49 1015.0
20260505214329 42 304 9.6 12.2 0.00 0.00 0.00 48 1015.0
20260505213826 42 297 12.2 13.0 0.00 0.00 0.00 47 1015.0
20260505213324 42 312 5.2 6.1 0.00 0.00 0.00 49 1015.2
20260505212820 42 319 9.6 12.2 0.00 0.00 0.00 48 1015.1
20260505212317 42 292 7.8 11.3 0.00 0.00 0.00 49 1015.1
20260505211812 42 330 4.3 6.1 0.00 0.00 0.00 49 1015.3
20260505211311 41 283 8.7 9.6 0.00 0.00 0.00 49 1015.1
20260505210807 42 349 4.3 5.2 0.00 0.00 0.00 50 1015.0
20260505210304 42 306 7.8 9.6 0.00 0.00 0.00 49 1015.0
20260505205801 42 304 5.2 6.1 0.00 0.00 0.00 49 1015.0
20260505205259 42 335 6.1 7.8 0.00 0.00 0.00 50 1014.9
20260505204755 42 292 7.8 9.6 0.00 0.00 0.00 48 1015.1
20260505204253 42 340 7.8 8.7 0.00 0.00 0.00 48 1015.2
20260505203750 42 314 10.4 13.9 0.00 0.00 0.00 48 1015.1
20260505203247 42 319 9.6 13.0 0.00 0.00 0.00 49 1014.9
20260505202743 43 327 9.6 12.2 0.00 0.00 0.00 46 1014.9
20260505202239 42 314 5.2 5.2 0.00 0.00 0.00 47 1015.0
20260505201736 43 281 11.3 13.9 0.00 0.00 0.00 47 1014.9
20260505201234 43 305 9.6 14.8 0.00 0.00 0.00 46 1014.9
20260505200732 43 309 6.1 7.8 0.00 0.00 0.00 47 1014.6
20260505200229 43 305 10.4 15.6 0.00 0.00 0.00 46 1014.8
20260505195724 44 297 12.2 14.8 0.00 0.00 0.00 46 1014.6
20260505195222 44 304 10.4 13.0 0.00 0.00 0.00 46 1014.6
20260505194719 43 290 5.2 9.6 0.00 0.00 0.00 48 1014.6
20260505194215 43 11 7.8 11.3 0.00 0.00 0.00 47 1015.0
20260505193711 42 303 11.3 14.8 0.00 0.00 0.00 46 1014.8
20260505193208 42 348 7.0 8.7 0.00 0.00 0.00 48 1014.9
20260505192707 42 309 8.7 13.9 0.00 0.00 0.00 47 1014.9
20260505192203 42 326 8.7 12.2 0.00 0.00 0.00 48 1014.8
20260505191702 42 309 7.0 7.8 0.00 0.00 0.00 47 1014.5
20260505191159 42 336 8.7 13.0 0.00 0.00 0.00 47 1014.8
20260505190655 42 330 9.6 11.3 0.00 0.00 0.00 46 1014.5
20260505190150 42 325 9.6 12.2 0.00 0.00 0.00 47 1014.5
20260505185647 42 316 9.6 9.6 0.00 0.00 0.00 46 1014.5
20260505185143 42 348 9.6 12.2 0.00 0.00 0.00 45 1014.6
20260505184640 42 319 7.0 9.6 0.00 0.00 0.00 46 1014.4
20260505184137 43 334 12.2 13.9 0.00 0.00 0.00 45 1014.6
20260505183634 43 308 9.6 13.0 0.00 0.00 0.00 44 1014.5
20260505183132 42 313 7.8 8.7 0.00 0.00 0.00 46 1014.5
20260505182627 42 282 11.3 13.9 0.00 0.00 0.00 46 1014.4
20260505182124 42 319 8.7 9.6 0.00 0.00 0.00 46 1014.5
20260505181621 42 325 8.7 11.3 0.00 0.00 0.00 45 1014.5
20260505181118 42 338 7.8 8.7 0.00 0.00 0.00 46 1014.5
20260505180614 42 277 6.1 8.7 0.00 0.00 0.00 47 1014.5
20260505180112 42 279 12.2 13.9 0.00 0.00 0.00 47 1014.5
20260505175608 42 315 7.8 11.3 0.00 0.00 0.00 48 1014.5
20260505175104 42 292 6.1 8.7 0.00 0.00 0.00 48 1014.4
20260505174601 42 329 10.4 14.8 0.00 0.00 0.00 48 1014.5
20260505174057 42 313 9.6 12.2 0.00 0.00 0.00 47 1014.5
20260505173554 42 291 11.3 13.9 0.00 0.00 0.00 47 1014.5
20260505173051 42 294 6.1 7.0 0.00 0.00 0.00 48 1014.9
20260505172548 41 301 7.8 11.3 0.00 0.00 0.00 47 1014.8
20260505172045 41 290 8.7 12.2 0.00 0.00 0.00 46 1014.5
20260505171539 41 343 8.7 9.6 0.00 0.00 0.00 47 1014.5
20260505171037 42 336 9.6 9.6 0.00 0.00 0.00 46 1014.4
20260505170534 42 294 6.1 7.8 0.00 0.00 0.00 48 1014.4
20260505170030 42 286 10.4 13.9 0.00 0.00 0.00 47 1014.4
20260505165525 41 281 6.1 7.0 0.00 0.00 0.00 48 1014.5
20260505165021 42 318 10.4 12.2 0.00 0.00 0.00 48 1014.5
20260505164517 44 294 5.2 6.1 0.00 0.00 0.00 50 1014.5
20260505164015 41 351 6.1 7.8 0.00 0.00 0.00 52 1014.5
20260505163514 40 313 7.8 13.0 0.00 0.00 0.00 52 1014.6
20260505163010 40 291 7.8 11.3 0.00 0.00 0.00 51 1014.6
20260505162503 40 293 11.3 13.0 0.00 0.00 0.00 50 1014.5
20260505162000 40 288 8.7 9.6 0.00 0.00 0.00 51 1014.6
20260505161457 40 323 7.8 11.3 0.00 0.00 0.00 50 1014.4
20260505160954 41 327 7.0 7.8 0.00 0.00 0.00 52 1014.5
20260505160452 40 331 8.7 12.2 0.00 0.00 0.00 51 1014.2
20260505152923 39 300 7.8 8.7 0.00 0.00 0.00 54 1014.3
20260505152420 40 348 12.2 14.8 0.00 0.00 0.00 52 1014.3
20260505151919 39 312 6.1 7.0 0.00 0.00 0.00 57 1014.2
20260505151410 39 315 7.0 8.7 0.00 0.00 0.00 58 1014.2
20260505150908 40 306 6.1 7.8 0.00 0.00 0.00 56 1014.3
20260505150404 40 306 7.8 9.6 0.00 0.00 0.00 59 1014.3
20260505140329 39 321 10.4 12.2 0.00 0.00 0.00 61 1013.9
20260505130252 37 290 9.6 12.2 0.00 0.00 0.00 66 1013.4
20260505124743 36 326 7.8 8.7 0.00 0.00 0.00 66 1013.4
20260505124240 36 303 4.3 5.2 0.00 0.00 0.00 68 1013.3
20260505123735 36 306 6.1 7.0 0.00 0.00 0.00 68 1013.2
20260505123232 36 306 6.1 7.0 0.00 0.00 0.00 69 1013.2
20260505122728 35 286 7.0 7.8 0.00 0.00 0.00 70 1013.1
20260505122226 35 299 6.1 7.8 0.00 0.00 0.00 70 1013.0
20260505121722 35 278 4.3 7.0 0.00 0.00 0.00 71 1013.2
20260505121219 35 312 5.2 6.1 0.00 0.00 0.00 72 1012.6
20260505120715 35 272 4.3 5.2 0.00 0.00 0.00 72 1012.6
20260505120212 34 279 3.5 6.1 0.00 0.00 0.00 73 1012.7
20260505115710 34 277 4.3 5.2 0.00 0.00 0.00 73 1012.9
20260505115208 34 287 4.3 5.2 0.00 0.00 0.00 73 1012.9
20260505114705 34 298 4.3 6.1 0.00 0.00 0.00 73 1012.5
20260505114201 34 299 4.3 6.1 0.00 0.00 0.00 73 1012.6
20260505113658 34 288 6.1 7.8 0.00 0.00 0.00 72 1012.6
20260505113155 34 284 3.5 4.3 0.00 0.00 0.00 72 1012.6
20260505112651 34 292 4.3 5.2 0.00 0.00 0.00 73 1012.5
20260505112149 34 282 4.3 6.1 0.00 0.00 0.00 73 1012.4
20260505111648 33 299 3.5 4.3 0.00 0.00 0.00 73 1012.3
20260505111144 34 303 6.1 7.0 0.00 0.00 0.00 73 1012.4
20260505110641 33 271 4.3 5.2 0.00 0.00 0.00 73 1012.5
20260505110138 34 304 3.5 4.3 0.00 0.00 0.00 73 1012.5
20260505102114 33 303 2.6 2.6 0.00 0.00 0.00 73 1012.4
20260505101612 33 318 1.7 1.7 0.00 0.00 0.00 73 1012.4
20260505101108 33 353 1.7 2.6 0.00 0.00 0.00 72 1012.7
20260505100605 33 320 1.7 1.7 0.00 0.00 0.00 72 1012.6
20260505095558 33 318 2.6 2.6 0.00 0.00 0.00 71 1012.5
20260505095054 33 283 2.6 2.6 0.00 0.00 0.00 71 1012.3
20260505094551 33 290 2.6 2.6 0.00 0.00 0.00 70 1012.6
20260505094047 33 281 3.5 4.3 0.00 0.00 0.00 70 1012.7
20260505093543 33 298 4.3 5.2 0.00 0.00 0.00 71 1012.4
20260505093041 33 291 3.5 4.3 0.00 0.00 0.00 71 1012.4
20260505092538 33 298 4.3 6.1 0.00 0.00 0.00 71 1012.3
20260505092037 32 302 2.6 2.6 0.00 0.00 0.00 72 1012.5
20260505091533 33 292 2.6 4.3 0.00 0.00 0.00 71 1012.4
20260505091032 33 284 3.5 4.3 0.00 0.00 0.00 71 1012.4
20260505090529 33 271 4.3 5.2 0.00 0.00 0.00 70 1012.5
20260505090027 33 288 4.3 5.2 0.00 0.00 0.00 70 1012.5
20260505085524 33 269 3.5 4.3 0.00 0.00 0.00 71 1012.2
20260505085022 33 283 3.5 4.3 0.00 0.00 0.00 71 1012.4
20260505084520 33 278 3.5 4.3 0.00 0.00 0.00 70 1012.5
20260505084018 33 299 4.3 5.2 0.00 0.00 0.00 70 1012.2
20260505083515 33 280 3.5 5.2 0.00 0.00 0.00 70 1012.4
20260505083012 33 261 5.2 6.1 0.00 0.00 0.00 70 1012.5
20260505082507 33 294 3.5 6.1 0.00 0.00 0.00 70 1012.4
20260505082004 33 276 2.6 2.6 0.00 0.00 0.00 70 1012.5
20260505081501 33 303 2.6 2.6 0.00 0.00 0.00 70 1012.5
20260505080957 33 301 2.6 4.3 0.00 0.00 0.00 69 1012.2
20260505080454 34 284 2.6 2.6 0.00 0.00 0.00 68 1012.5
20260505075949 34 272 2.6 4.3 0.00 0.00 0.00 68 1012.4
20260505075446 35 270 4.3 4.3 0.00 0.00 0.00 66 1012.4
20260505074944 35 285 6.1 7.8 0.00 0.00 0.00 66 1012.5
20260505074441 35 310 3.5 5.2 0.00 0.00 0.00 65 1012.5
20260505073938 35 287 2.6 2.6 0.00 0.00 0.00 65 1012.3
20260505073436 35 290 6.1 7.0 0.00 0.00 0.00 65 1012.4
20260505072933 36 311 6.1 7.0 0.00 0.00 0.00 64 1012.2
20260505072429 36 297 5.2 6.1 0.00 0.00 0.00 64 1012.3
20260505071925 36 319 4.3 5.2 0.00 0.00 0.00 64 1012.3
20260505071421 36 298 4.3 5.2 0.00 0.00 0.00 63 1012.5
20260505070919 37 269 6.1 7.0 0.00 0.00 0.00 63 1012.1
20260505070415 37 305 6.1 7.0 0.00 0.00 0.00 63 1012.2
20260505065911 37 290 6.1 7.8 0.00 0.00 0.00 62 1012.3
20260505065408 37 333 6.1 7.0 0.00 0.00 0.00 62 1012.4
20260505064905 37 281 6.1 7.8 0.00 0.00 0.00 62 1012.0
20260505064402 37 303 6.1 7.8 0.00 0.00 0.00 62 1012.3
20260505063901 37 286 5.2 7.0 0.00 0.00 0.00 62 1012.3
20260505063356 37 300 6.1 7.8 0.00 0.00 0.00 63 1012.1
20260505062853 37 302 3.5 4.3 0.00 0.00 0.00 63 1012.1
20260505062350 35 303 2.6 2.6 0.00 0.00 0.00 65 1012.0
20260505061847 35 269 2.6 2.6 0.00 0.00 0.00 66 1012.2
20260505061345 34 290 2.6 2.6 0.00 0.00 0.00 66 1012.2
20260505060842 34 274 2.6 2.6 0.00 0.00 0.00 67 1012.0
20260505060339 33 309 2.6 2.6 0.00 0.00 0.00 67 1011.8
20260505055835 33 301 3.5 5.2 0.00 0.00 0.00 67 1012.0
20260505055331 33 300 1.7 1.7 0.00 0.00 0.00 67 1012.0
20260505054828 33 304 2.6 2.6 0.00 0.00 0.00 66 1011.9
20260505054326 33 289 1.7 1.7 0.00 0.00 0.00 67 1011.9
20260505053824 32 308 1.7 1.7 0.00 0.00 0.00 68 1012.1
20260505053320 31 305 0.9 0.9 0.00 0.00 0.00 68 1012.0
20260505052817 32 297 0.9 0.9 0.00 0.00 0.00 67 1011.9
20260505052314 31 351 0.9 1.7 0.00 0.00 0.00 67 1012.0
20260505051811 31 18 0.9 0.9 0.00 0.00 0.00 68 1011.9
20260505051309 31 331 0.9 0.9 0.00 0.00 0.00 68 1011.8
20260505050807 31 330 0.0 0.9 0.00 0.00 0.00 67 1011.7
20260505050305 31 335 0.0 0.0 0.00 0.00 0.00 67 1011.8